| time (UTC) | temp F | wind direction | speed MPH | gust MPH | rain 1hr in | rain 24hr in | rain mn in | humidity % | barometer mb |
| 20260901164609 | 71 | 155 | 18.0 | 23.0 | 0.00 | 0.00 | 0.00 | 50 | 1020.0 |
| 20260901164104 | 70 | 144 | 22.0 | 22.0 | 0.00 | 0.00 | 0.00 | 50 | 1020.0 |
| 20260901163600 | 69 | 167 | 8.0 | 19.0 | 0.00 | 0.00 | 0.00 | 50 | 1020.1 |
| 20260901163059 | 69 | 133 | 18.0 | 20.0 | 0.00 | 0.00 | 0.00 | 50 | 1019.8 |
| 20260901162554 | 69 | 156 | 16.0 | 25.0 | 0.00 | 0.00 | 0.00 | 52 | 1020.0 |
| 20260901162053 | 68 | 158 | 17.0 | 23.0 | 0.00 | 0.00 | 0.00 | 54 | 1020.0 |
| 20260901161553 | 68 | 145 | 13.0 | 23.0 | 0.00 | 0.00 | 0.00 | 53 | 1019.9 |
| 20260901161052 | 68 | 154 | 13.0 | 27.0 | 0.00 | 0.00 | 0.00 | 52 | 1020.1 |
| 20260901160549 | 69 | 156 | 14.0 | 25.0 | 0.00 | 0.00 | 0.00 | 52 | 1019.8 |
| 20260901160044 | 69 | 148 | 19.0 | 24.0 | 0.00 | 0.00 | 0.00 | 53 | 1019.9 |
| 20260901155543 | 69 | 154 | 17.0 | 26.0 | 0.00 | 0.00 | 0.00 | 51 | 1019.9 |
| 20260901155039 | 71 | 164 | 12.0 | 25.0 | 0.00 | 0.00 | 0.00 | 50 | 1019.9 |
| 20260901154538 | 70 | 140 | 24.0 | 25.0 | 0.00 | 0.00 | 0.00 | 50 | 1020.0 |
| 20260901154033 | 69 | 127 | 9.0 | 19.0 | 0.00 | 0.00 | 0.00 | 51 | 1019.9 |
| 20260901153528 | 68 | 161 | 19.0 | 23.0 | 0.00 | 0.00 | 0.00 | 53 | 1019.8 |
| 20260901153028 | 67 | 164 | 12.0 | 21.0 | 0.00 | 0.00 | 0.00 | 56 | 1020.0 |
| 20260901152522 | 66 | 175 | 11.0 | 22.0 | 0.00 | 0.00 | 0.00 | 55 | 1020.1 |
| 20260901152021 | 65 | 161 | 17.0 | 21.0 | 0.00 | 0.00 | 0.00 | 55 | 1020.0 |
| 20260901151517 | 65 | 168 | 12.0 | 20.0 | 0.00 | 0.00 | 0.00 | 56 | 1020.0 |
| 20260901151016 | 65 | 163 | 11.0 | 17.0 | 0.00 | 0.00 | 0.00 | 56 | 1019.9 |
| 20260901150514 | 65 | 160 | 13.0 | 18.0 | 0.00 | 0.00 | 0.00 | 56 | 1019.8 |
| 20260901150013 | 64 | 163 | 12.0 | 20.0 | 0.00 | 0.00 | 0.00 | 57 | 1020.0 |
| 20260901145507 | 64 | 155 | 8.0 | 21.0 | 0.00 | 0.00 | 0.00 | 58 | 1019.8 |
| 20260901145006 | 63 | 173 | 12.0 | 23.0 | 0.00 | 0.00 | 0.00 | 59 | 1019.8 |
| 20260901144502 | 62 | 177 | 9.0 | 17.0 | 0.00 | 0.00 | 0.00 | 61 | 1019.8 |
| 20260901143957 | 62 | 171 | 14.0 | 20.0 | 0.00 | 0.00 | 0.00 | 62 | 1019.8 |
| 20260901143453 | 63 | 157 | 15.0 | 21.0 | 0.00 | 0.00 | 0.00 | 60 | 1019.9 |
| 20260901142950 | 63 | 173 | 15.0 | 19.0 | 0.00 | 0.00 | 0.00 | 60 | 1019.7 |
| 20260901142449 | 63 | 172 | 9.0 | 18.0 | 0.00 | 0.00 | 0.00 | 60 | 1019.7 |
| 20260901141945 | 63 | 141 | 17.0 | 20.0 | 0.00 | 0.00 | 0.00 | 59 | 1019.5 |
| 20260901141444 | 63 | 160 | 15.0 | 20.0 | 0.00 | 0.00 | 0.00 | 59 | 1019.6 |
| 20260901140939 | 64 | 158 | 14.0 | 26.0 | 0.00 | 0.00 | 0.00 | 58 | 1019.6 |
| 20260901140437 | 64 | 161 | 12.0 | 23.0 | 0.00 | 0.00 | 0.00 | 56 | 1019.6 |
| 20260901135932 | 64 | 166 | 9.0 | 19.0 | 0.00 | 0.00 | 0.00 | 54 | 1019.2 |
| 20260901135426 | 63 | 157 | 12.0 | 19.0 | 0.00 | 0.00 | 0.00 | 57 | 1019.5 |
| 20260901134923 | 62 | 161 | 11.0 | 20.0 | 0.00 | 0.00 | 0.00 | 61 | 1019.6 |
| 20260901134418 | 63 | 145 | 17.0 | 19.0 | 0.00 | 0.00 | 0.00 | 61 | 1019.1 |
| 20260901133918 | 64 | 144 | 15.0 | 19.0 | 0.00 | 0.00 | 0.00 | 56 | 1019.3 |
| 20260901133417 | 64 | 127 | 5.0 | 16.0 | 0.00 | 0.00 | 0.00 | 56 | 1019.3 |
| 20260901132917 | 63 | 178 | 17.0 | 20.0 | 0.00 | 0.00 | 0.00 | 60 | 1019.5 |
| 20260901132417 | 63 | 159 | 11.0 | 19.0 | 0.00 | 0.00 | 0.00 | 61 | 1019.1 |
| 20260901131916 | 64 | 172 | 11.0 | 19.0 | 0.00 | 0.00 | 0.00 | 60 | 1019.1 |
| 20260901131415 | 63 | 143 | 17.0 | 24.0 | 0.00 | 0.00 | 0.00 | 58 | 1019.0 |
| 20260901130911 | 63 | 169 | 14.0 | 21.0 | 0.00 | 0.00 | 0.00 | 60 | 1019.0 |
| 20260901130406 | 63 | 202 | 9.0 | 15.0 | 0.00 | 0.00 | 0.00 | 59 | 1019.2 |
| 20260901125904 | 63 | 162 | 7.0 | 20.0 | 0.00 | 0.00 | 0.00 | 59 | 1019.1 |
| 20260901125403 | 63 | 176 | 13.0 | 18.0 | 0.00 | 0.00 | 0.00 | 58 | 1019.0 |
| 20260901124857 | 62 | 163 | 16.0 | 16.0 | 0.00 | 0.00 | 0.00 | 58 | 1019.0 |
| 20260901124353 | 62 | 163 | 16.0 | 16.0 | 0.00 | 0.00 | 0.00 | 58 | 1019.0 |
| 20260901123853 | 62 | 150 | 9.0 | 16.0 | 0.00 | 0.00 | 0.00 | 59 | 1019.0 |
| 20260901123348 | 61 | 160 | 9.0 | 18.0 | 0.00 | 0.00 | 0.00 | 61 | 1019.1 |
| 20260901122845 | 61 | 165 | 9.0 | 16.0 | 0.00 | 0.00 | 0.00 | 63 | 1019.2 |
| 20260901122341 | 61 | 150 | 17.0 | 22.0 | 0.00 | 0.00 | 0.00 | 64 | 1019.2 |
| 20260901121840 | 61 | 172 | 13.0 | 15.0 | 0.00 | 0.00 | 0.00 | 66 | 1019.2 |
| 20260901121336 | 61 | 154 | 18.0 | 20.0 | 0.00 | 0.00 | 0.00 | 66 | 1019.2 |
| 20260901120831 | 60 | 177 | 10.0 | 16.0 | 0.00 | 0.00 | 0.00 | 68 | 1019.6 |
| 20260901120330 | 61 | 160 | 13.0 | 21.0 | 0.00 | 0.00 | 0.00 | 70 | 1019.6 |
| 20260901115826 | 61 | 172 | 8.0 | 19.0 | 0.00 | 0.00 | 0.00 | 66 | 1019.3 |
| 20260901115321 | 62 | 164 | 15.0 | 20.0 | 0.00 | 0.00 | 0.00 | 64 | 1019.2 |
| 20260901114819 | 62 | 177 | 12.0 | 13.0 | 0.00 | 0.00 | 0.00 | 63 | 1019.2 |
| 20260901114314 | 63 | 146 | 10.0 | 17.0 | 0.00 | 0.00 | 0.00 | 58 | 1019.2 |
| 20260901113813 | 63 | 171 | 4.0 | 18.0 | 0.00 | 0.00 | 0.00 | 54 | 1018.9 |
| 20260901113312 | 63 | 174 | 11.0 | 17.0 | 0.00 | 0.00 | 0.00 | 59 | 1019.0 |
| 20260901112808 | 63 | 174 | 10.0 | 20.0 | 0.00 | 0.00 | 0.00 | 56 | 1018.8 |
| 20260901112307 | 63 | 176 | 10.0 | 12.0 | 0.00 | 0.00 | 0.00 | 55 | 1019.1 |
| 20260901111807 | 63 | 176 | 8.0 | 13.0 | 0.00 | 0.00 | 0.00 | 55 | 1019.1 |
| 20260901111306 | 63 | 204 | 10.0 | 15.0 | 0.00 | 0.00 | 0.00 | 56 | 1019.1 |
| 20260901110805 | 62 | 192 | 11.0 | 16.0 | 0.00 | 0.00 | 0.00 | 58 | 1019.0 |
| 20260901110301 | 63 | 157 | 7.0 | 17.0 | 0.00 | 0.00 | 0.00 | 58 | 1019.1 |
| 20260901105757 | 63 | 171 | 13.0 | 20.0 | 0.00 | 0.00 | 0.00 | 57 | 1019.1 |
| 20260901105257 | 63 | 135 | 12.0 | 21.0 | 0.00 | 0.00 | 0.00 | 56 | 1019.1 |
| 20260901104753 | 62 | 180 | 10.0 | 21.0 | 0.00 | 0.00 | 0.00 | 59 | 1019.1 |
| 20260901104248 | 62 | 159 | 10.0 | 16.0 | 0.00 | 0.00 | 0.00 | 57 | 1019.2 |
| 20260901103743 | 62 | 166 | 14.0 | 23.0 | 0.00 | 0.00 | 0.00 | 59 | 1019.2 |
| 20260901103238 | 62 | 166 | 15.0 | 18.0 | 0.00 | 0.00 | 0.00 | 60 | 1019.0 |
| 20260901102732 | 62 | 173 | 20.0 | 23.0 | 0.00 | 0.00 | 0.00 | 62 | 1019.2 |
| 20260901102227 | 62 | 145 | 24.0 | 26.0 | 0.00 | 0.00 | 0.00 | 59 | 1019.1 |
| 20260901101723 | 62 | 159 | 14.0 | 19.0 | 0.00 | 0.00 | 0.00 | 59 | 1019.1 |
| 20260901101223 | 62 | 161 | 10.0 | 23.0 | 0.00 | 0.00 | 0.00 | 61 | 1019.1 |
| 20260901100722 | 61 | 166 | 10.0 | 25.0 | 0.00 | 0.00 | 0.00 | 63 | 1019.2 |
| 20260901100217 | 62 | 147 | 10.0 | 18.0 | 0.00 | 0.00 | 0.00 | 61 | 1019.2 |
| 20260901095715 | 61 | 154 | 22.0 | 23.0 | 0.00 | 0.00 | 0.00 | 63 | 1019.5 |
| 20260901095213 | 62 | 158 | 14.0 | 22.0 | 0.00 | 0.00 | 0.00 | 65 | 1019.1 |
| 20260901094713 | 63 | 162 | 19.0 | 25.0 | 0.00 | 0.00 | 0.00 | 59 | 1019.3 |
| 20260901094208 | 62 | 169 | 17.0 | 26.0 | 0.00 | 0.00 | 0.00 | 60 | 1019.5 |
| 20260901093703 | 61 | 170 | 13.0 | 23.0 | 0.00 | 0.00 | 0.00 | 66 | 1019.2 |
| 20260901093202 | 61 | 160 | 19.0 | 20.0 | 0.00 | 0.00 | 0.00 | 65 | 1019.0 |
| 20260901092658 | 62 | 164 | 11.0 | 22.0 | 0.00 | 0.00 | 0.00 | 62 | 1019.2 |
| 20260901092154 | 62 | 163 | 15.0 | 26.0 | 0.00 | 0.00 | 0.00 | 64 | 1019.1 |
| 20260901091649 | 62 | 173 | 10.0 | 21.0 | 0.00 | 0.00 | 0.00 | 63 | 1019.2 |
| 20260901091150 | 62 | 169 | 12.0 | 29.0 | 0.00 | 0.00 | 0.00 | 63 | 1018.9 |
| 20260901090644 | 61 | 153 | 18.0 | 33.0 | 0.00 | 0.00 | 0.00 | 65 | 1019.2 |
| 20260901090140 | 61 | 164 | 9.0 | 22.0 | 0.00 | 0.00 | 0.00 | 66 | 1019.1 |
| 20260901085636 | 61 | 140 | 9.0 | 23.0 | 0.00 | 0.00 | 0.00 | 67 | 1019.5 |
| 20260901085131 | 60 | 146 | 11.0 | 18.0 | 0.00 | 0.00 | 0.00 | 68 | 1019.2 |
| 20260901084627 | 60 | 135 | 15.0 | 21.0 | 0.00 | 0.00 | 0.00 | 68 | 1019.6 |
| 20260901084124 | 60 | 150 | 12.0 | 18.0 | 0.00 | 0.00 | 0.00 | 70 | 1019.5 |
| 20260901083623 | 60 | 127 | 18.0 | 20.0 | 0.00 | 0.00 | 0.00 | 71 | 1019.6 |
| 20260901083122 | 60 | 163 | 16.0 | 18.0 | 0.00 | 0.00 | 0.00 | 71 | 1019.6 |
| 20260901082616 | 60 | 149 | 10.0 | 19.0 | 0.00 | 0.00 | 0.00 | 70 | 1019.8 |
| 20260901082112 | 60 | 144 | 15.0 | 16.0 | 0.00 | 0.00 | 0.00 | 70 | 1019.6 |
| 20260901081607 | 61 | 154 | 10.0 | 16.0 | 0.00 | 0.00 | 0.00 | 69 | 1019.8 |
| 20260901081102 | 60 | 136 | 7.0 | 18.0 | 0.00 | 0.00 | 0.00 | 70 | 1019.6 |
| 20260901080601 | 60 | 151 | 13.0 | 18.0 | 0.00 | 0.00 | 0.00 | 71 | 1019.7 |
| 20260901080100 | 60 | 161 | 8.0 | 17.0 | 0.00 | 0.00 | 0.00 | 74 | 1019.7 |
| 20260901075556 | 60 | 157 | 11.0 | 18.0 | 0.00 | 0.00 | 0.00 | 74 | 1019.6 |
| 20260901075055 | 60 | 140 | 16.0 | 22.0 | 0.00 | 0.00 | 0.00 | 74 | 1019.7 |
| 20260901074555 | 60 | 159 | 14.0 | 19.0 | 0.00 | 0.00 | 0.00 | 74 | 1019.8 |
| 20260901074050 | 60 | 155 | 16.0 | 26.0 | 0.00 | 0.00 | 0.00 | 74 | 1019.9 |
| 20260901073547 | 60 | 151 | 13.0 | 25.0 | 0.00 | 0.00 | 0.00 | 75 | 1019.7 |
| 20260901073047 | 60 | 162 | 17.0 | 21.0 | 0.00 | 0.00 | 0.00 | 75 | 1019.9 |
| 20260901072542 | 60 | 138 | 14.0 | 19.0 | 0.00 | 0.00 | 0.00 | 75 | 1019.8 |
| 20260901072037 | 60 | 155 | 15.0 | 20.0 | 0.00 | 0.00 | 0.00 | 75 | 1020.1 |
| 20260901071537 | 60 | 140 | 16.0 | 23.0 | 0.00 | 0.00 | 0.00 | 75 | 1020.0 |
| 20260901071036 | 60 | 147 | 12.0 | 23.0 | 0.00 | 0.00 | 0.00 | 75 | 1019.9 |
| 20260901070531 | 60 | 139 | 11.0 | 22.0 | 0.00 | 0.00 | 0.00 | 74 | 1020.0 |
| 20260901070027 | 61 | 167 | 8.0 | 21.0 | 0.00 | 0.00 | 0.00 | 74 | 1019.9 |
| 20260901065521 | 61 | 138 | 8.0 | 16.0 | 0.00 | 0.00 | 0.00 | 74 | 1019.8 |
| 20260901065015 | 61 | 122 | 7.0 | 16.0 | 0.00 | 0.00 | 0.00 | 73 | 1019.9 |
| 20260901064512 | 61 | 156 | 8.0 | 11.0 | 0.00 | 0.00 | 0.00 | 72 | 1020.3 |
| 20260901064009 | 61 | 159 | 11.0 | 14.0 | 0.00 | 0.00 | 0.00 | 71 | 1020.0 |
| 20260901063505 | 61 | 118 | 10.0 | 11.0 | 0.00 | 0.00 | 0.00 | 71 | 1019.9 |
| 20260901063001 | 61 | 137 | 12.0 | 13.0 | 0.00 | 0.00 | 0.00 | 70 | 1020.0 |
| 20260901062456 | 61 | 149 | 7.0 | 15.0 | 0.00 | 0.00 | 0.00 | 70 | 1020.0 |
| 20260901061947 | 61 | 159 | 6.0 | 13.0 | 0.00 | 0.00 | 0.00 | 70 | 1019.9 |
| 20260901061443 | 61 | 161 | 7.0 | 15.0 | 0.00 | 0.00 | 0.00 | 69 | 1020.1 |
| 20260901060942 | 61 | 164 | 10.0 | 16.0 | 0.00 | 0.00 | 0.00 | 69 | 1020.1 |
| 20260901060438 | 61 | 151 | 12.0 | 16.0 | 0.00 | 0.00 | 0.00 | 68 | 1019.9 |
| 20260901055937 | 62 | 121 | 13.0 | 17.0 | 0.00 | 0.04 | 0.04 | 67 | 1019.7 |
| 20260901055434 | 62 | 160 | 4.0 | 16.0 | 0.00 | 0.04 | 0.04 | 66 | 1020.3 |
| 20260901054930 | 62 | 133 | 16.0 | 17.0 | 0.00 | 0.04 | 0.04 | 65 | 1019.9 |
| 20260901054427 | 62 | 152 | 9.0 | 12.0 | 0.00 | 0.04 | 0.04 | 66 | 1019.9 |
| 20260901053923 | 62 | 164 | 8.0 | 11.0 | 0.00 | 0.04 | 0.04 | 67 | 1020.5 |
| 20260901053418 | 62 | 170 | 4.0 | 15.0 | 0.00 | 0.04 | 0.04 | 68 | 1020.1 |
| 20260901052914 | 62 | 170 | 9.0 | 14.0 | 0.00 | 0.04 | 0.04 | 69 | 1020.4 |
| 20260901052409 | 62 | 172 | 7.0 | 12.0 | 0.00 | 0.04 | 0.04 | 69 | 1020.5 |
| 20260901051908 | 62 | 184 | 10.0 | 12.0 | 0.00 | 0.04 | 0.04 | 67 | 1020.4 |
| 20260901051403 | 62 | 149 | 7.0 | 15.0 | 0.00 | 0.04 | 0.04 | 66 | 1020.4 |
| 20260901050858 | 62 | 166 | 10.0 | 17.0 | 0.00 | 0.04 | 0.04 | 69 | 1020.1 |
| 20260901050353 | 62 | 168 | 6.0 | 17.0 | 0.00 | 0.04 | 0.04 | 70 | 1020.4 |
| 20260901045848 | 62 | 178 | 10.0 | 16.0 | 0.00 | 0.04 | 0.04 | 71 | 1020.4 |
| 20260901045348 | 61 | 145 | 12.0 | 17.0 | 0.00 | 0.04 | 0.04 | 73 | 1020.1 |
| 20260901044843 | 61 | 145 | 15.0 | 24.0 | 0.00 | 0.04 | 0.04 | 74 | 1020.1 |
| 20260901044339 | 61 | 170 | 12.0 | 23.0 | 0.00 | 0.04 | 0.04 | 75 | 1020.4 |
| 20260901043835 | 60 | 144 | 15.0 | 22.0 | 0.00 | 0.04 | 0.04 | 76 | 1020.6 |
| 20260901043331 | 60 | 158 | 15.0 | 20.0 | 0.00 | 0.04 | 0.04 | 77 | 1020.6 |
| 20260901042830 | 60 | 167 | 14.0 | 21.0 | 0.00 | 0.04 | 0.04 | 77 | 1020.8 |
| 20260901042325 | 60 | 153 | 12.0 | 20.0 | 0.00 | 0.04 | 0.04 | 77 | 1020.8 |
| 20260901041820 | 61 | 162 | 10.0 | 21.0 | 0.00 | 0.04 | 0.04 | 76 | 1021.0 |
| 20260901041315 | 61 | 144 | 17.0 | 21.0 | 0.00 | 0.04 | 0.04 | 76 | 1021.0 |
| 20260901040810 | 61 | 162 | 11.0 | 19.0 | 0.00 | 0.04 | 0.04 | 75 | 1021.2 |
| 20260901040309 | 61 | 145 | 17.0 | 23.0 | 0.00 | 0.04 | 0.04 | 75 | 1021.2 |
| 20260901035808 | 61 | 145 | 15.0 | 24.0 | 0.00 | 0.04 | 0.04 | 75 | 1021.2 |
| 20260901035307 | 61 | 147 | 11.0 | 19.0 | 0.00 | 0.04 | 0.04 | 75 | 1021.2 |
| 20260901034806 | 61 | 145 | 16.0 | 17.0 | 0.00 | 0.04 | 0.04 | 75 | 1021.0 |
| 20260901034302 | 61 | 145 | 15.0 | 21.0 | 0.00 | 0.04 | 0.04 | 75 | 1021.2 |
| 20260901033801 | 61 | 134 | 13.0 | 18.0 | 0.00 | 0.04 | 0.04 | 75 | 1021.2 |
| 20260901033300 | 61 | 148 | 9.0 | 19.0 | 0.00 | 0.04 | 0.04 | 75 | 1021.2 |
| 20260901032759 | 61 | 135 | 7.0 | 18.0 | 0.00 | 0.04 | 0.04 | 75 | 1021.1 |
| 20260901032254 | 61 | 144 | 9.0 | 15.0 | 0.00 | 0.04 | 0.04 | 74 | 1021.2 |
| 20260901031749 | 61 | 148 | 6.0 | 13.0 | 0.00 | 0.04 | 0.04 | 73 | 1021.0 |
| 20260901031245 | 62 | 151 | 15.0 | 18.0 | 0.00 | 0.04 | 0.04 | 72 | 1021.2 |
| 20260901030744 | 62 | 141 | 14.0 | 19.0 | 0.00 | 0.04 | 0.04 | 71 | 1020.7 |
| 20260901030239 | 62 | 175 | 7.0 | 17.0 | 0.00 | 0.04 | 0.04 | 70 | 1020.6 |
| 20260901025739 | 62 | 180 | 11.0 | 16.0 | 0.00 | 0.04 | 0.04 | 70 | 1020.3 |
| 20260901025234 | 61 | 151 | 5.0 | 16.0 | 0.00 | 0.04 | 0.04 | 72 | 1020.3 |
| 20260901024729 | 61 | 148 | 11.0 | 16.0 | 0.00 | 0.04 | 0.04 | 74 | 1020.1 |
| 20260901024228 | 61 | 169 | 9.0 | 19.0 | 0.00 | 0.04 | 0.04 | 76 | 1020.0 |
| 20260901023726 | 60 | 157 | 7.0 | 18.0 | 0.00 | 0.04 | 0.04 | 78 | 1020.0 |
| 20260901023221 | 60 | 180 | 7.0 | 13.0 | 0.00 | 0.04 | 0.04 | 79 | 1020.0 |
| 20260901022717 | 60 | 171 | 10.0 | 20.0 | 0.00 | 0.04 | 0.04 | 79 | 1020.1 |
| 20260901022217 | 60 | 152 | 11.0 | 21.0 | 0.00 | 0.04 | 0.04 | 80 | 1019.9 |
| 20260901021713 | 60 | 158 | 11.0 | 21.0 | 0.00 | 0.04 | 0.04 | 81 | 1019.9 |
| 20260901021208 | 60 | 145 | 19.0 | 20.0 | 0.00 | 0.04 | 0.04 | 82 | 1020.4 |
| 20260901020704 | 60 | 133 | 16.0 | 19.0 | 0.00 | 0.04 | 0.04 | 82 | 1020.5 |
| 20260901020159 | 60 | 144 | 15.0 | 21.0 | 0.00 | 0.04 | 0.04 | 82 | 1020.5 |
| 20260901015654 | 60 | 141 | 17.0 | 23.0 | 0.00 | 0.04 | 0.04 | 82 | 1020.6 |
| 20260901015154 | 60 | 148 | 13.0 | 22.0 | 0.00 | 0.04 | 0.04 | 82 | 1021.1 |
| 20260901014648 | 60 | 151 | 20.0 | 22.0 | 0.00 | 0.04 | 0.04 | 82 | 1020.7 |
| 20260901014145 | 60 | 159 | 11.0 | 23.0 | 0.00 | 0.04 | 0.04 | 82 | 1021.1 |
| 20260901013640 | 60 | 131 | 11.0 | 22.0 | 0.00 | 0.04 | 0.04 | 81 | 1021.2 |
| 20260901013137 | 60 | 131 | 19.0 | 20.0 | 0.00 | 0.04 | 0.04 | 81 | 1021.3 |
| 20260901012636 | 60 | 131 | 15.0 | 17.0 | 0.00 | 0.04 | 0.04 | 81 | 1021.4 |
| 20260901012131 | 60 | 159 | 4.0 | 20.0 | 0.00 | 0.04 | 0.04 | 80 | 1021.2 |
| 20260901011627 | 60 | 138 | 13.0 | 18.0 | 0.00 | 0.04 | 0.04 | 79 | 1021.7 |
| 20260901011126 | 60 | 174 | 6.0 | 17.0 | 0.02 | 0.04 | 0.04 | 80 | 1021.8 |
| 20260901010621 | 60 | 137 | 11.0 | 21.0 | 0.02 | 0.04 | 0.04 | 79 | 1022.0 |
| 20260901010115 | 61 | 159 | 15.0 | 22.0 | 0.00 | 0.04 | 0.04 | 78 | 1021.8 |
| 20260901005614 | 61 | 175 | 9.0 | 12.0 | 0.00 | 0.04 | 0.04 | 78 | 1022.1 |
| 20260901005110 | 61 | 149 | 12.0 | 17.0 | 0.02 | 0.04 | 0.04 | 78 | 1022.2 |
| 20260901004609 | 62 | 144 | 10.0 | 21.0 | 0.02 | 0.04 | 0.04 | 77 | 1022.5 |
| 20260901004104 | 62 | 148 | 8.0 | 11.0 | 0.00 | 0.03 | 0.03 | 77 | 1022.2 |
| 20260901003559 | 62 | 137 | 8.0 | 11.0 | 0.00 | 0.03 | 0.03 | 77 | 1022.3 |
| 20260901003057 | 62 | 130 | 9.0 | 16.0 | 0.00 | 0.03 | 0.03 | 77 | 1022.5 |
| 20260901002552 | 62 | 140 | 14.0 | 16.0 | 0.00 | 0.03 | 0.03 | 77 | 1022.8 |
| 20260901002047 | 62 | 159 | 7.0 | 19.0 | 0.00 | 0.03 | 0.03 | 78 | 1022.6 |
| 20260901001547 | 62 | 153 | 10.0 | 19.0 | 0.02 | 0.03 | 0.03 | 76 | 1022.8 |
| 20260901001042 | 63 | 165 | 11.0 | 21.0 | 0.02 | 0.03 | 0.03 | 76 | 1022.7 |
| 20260901000537 | 63 | 143 | 8.0 | 19.0 | 0.00 | 0.03 | 0.03 | 75 | 1022.6 |
| 20260901000034 | 63 | 140 | 13.0 | 18.0 | 0.00 | 0.03 | 0.03 | 76 | 1022.5 |
| 20260831235527 | 63 | 152 | 9.0 | 18.0 | 0.00 | 0.03 | 0.03 | 74 | 1022.7 |
| 20260831235023 | 63 | 153 | 14.0 | 25.0 | 0.02 | 0.03 | 0.03 | 73 | 1022.5 |
| 20260831234522 | 63 | 181 | 8.0 | 21.0 | 0.02 | 0.03 | 0.03 | 72 | 1022.5 |
| 20260831234018 | 63 | 162 | 13.0 | 19.0 | 0.00 | 0.02 | 0.02 | 71 | 1022.6 |
| 20260831233513 | 64 | 181 | 14.0 | 15.0 | 0.02 | 0.02 | 0.02 | 71 | 1022.5 |
| 20260831233009 | 64 | 134 | 11.0 | 17.0 | 0.05 | 0.02 | 0.02 | 68 | 1022.1 |
| 20260831232504 | 64 | 166 | 13.0 | 15.0 | 0.02 | 0.02 | 0.02 | 67 | 1021.5 |
| 20260831232000 | 65 | 148 | 7.0 | 17.0 | 0.05 | 0.02 | 0.02 | 64 | 1021.4 |
| 20260831231456 | 67 | 174 | 7.0 | 28.0 | 0.07 | 0.01 | 0.01 | 60 | 1021.0 |
| 20260831230952 | 69 | 205 | 11.0 | 24.0 | 0.02 | 0.00 | 0.00 | 60 | 1020.7 |
| 20260831230447 | 72 | 198 | 10.0 | 22.0 | 0.00 | 0.00 | 0.00 | 51 | 1020.3 |
| 20260831225946 | 76 | 184 | 13.0 | 25.0 | 0.00 | 0.00 | 0.00 | 43 | 1019.6 |
| 20260831225443 | 76 | 184 | 9.0 | 13.0 | 0.00 | 0.00 | 0.00 | 37 | 1018.9 |
| 20260831224937 | 76 | 186 | 10.0 | 13.0 | 0.00 | 0.00 | 0.00 | 38 | 1018.4 |
| 20260831224437 | 76 | 180 | 10.0 | 17.0 | 0.00 | 0.00 | 0.00 | 38 | 1017.9 |
| 20260831223932 | 76 | 179 | 10.0 | 18.0 | 0.00 | 0.00 | 0.00 | 38 | 1017.7 |
| 20260831223427 | 77 | 157 | 14.0 | 20.0 | 0.00 | 0.00 | 0.00 | 39 | 1017.6 |
| 20260831222924 | 77 | 187 | 6.0 | 23.0 | 0.00 | 0.00 | 0.00 | 40 | 1017.5 |
| 20260831222419 | 78 | 168 | 13.0 | 19.0 | 0.00 | 0.00 | 0.00 | 41 | 1017.5 |
| 20260831221914 | 78 | 168 | 4.0 | 12.0 | 0.00 | 0.00 | 0.00 | 43 | 1017.5 |
| 20260831221410 | 78 | 183 | 5.0 | 11.0 | 0.00 | 0.00 | 0.00 | 44 | 1017.3 |
| 20260831220905 | 78 | 181 | 7.0 | 15.0 | 0.00 | 0.00 | 0.00 | 47 | 1017.1 |
| 20260831220401 | 78 | 198 | 9.0 | 16.0 | 0.00 | 0.00 | 0.00 | 46 | 1017.0 |
| 20260831215855 | 79 | 160 | 7.0 | 12.0 | 0.00 | 0.00 | 0.00 | 47 | 1016.9 |
| 20260831215351 | 79 | 210 | 6.0 | 12.0 | 0.00 | 0.00 | 0.00 | 46 | 1017.0 |
| 20260831214847 | 80 | 171 | 7.0 | 13.0 | 0.00 | 0.00 | 0.00 | 46 | 1017.1 |
| 20260831214345 | 80 | 180 | 9.0 | 16.0 | 0.00 | 0.00 | 0.00 | 44 | 1017.3 |
| 20260831213845 | 81 | 180 | 6.0 | 18.0 | 0.00 | 0.00 | 0.00 | 34 | 1017.0 |
| 20260831213342 | 82 | 167 | 3.0 | 8.0 | 0.00 | 0.00 | 0.00 | 33 | 1017.6 |
| 20260831212837 | 82 | 171 | 5.0 | 15.0 | 0.00 | 0.00 | 0.00 | 32 | 1017.4 |
| 20260831212334 | 82 | 125 | 5.0 | 8.0 | 0.00 | 0.00 | 0.00 | 32 | 1017.8 |
| 20260831211832 | 82 | 138 | 6.0 | 9.0 | 0.00 | 0.00 | 0.00 | 32 | 1017.1 |
| 20260831211327 | 82 | 143 | 4.0 | 12.0 | 0.00 | 0.00 | 0.00 | 33 | 1017.4 |
| 20260831210827 | 82 | 161 | 6.0 | 10.0 | 0.00 | 0.00 | 0.00 | 34 | 1017.4 |
| 20260831210323 | 82 | 108 | 14.0 | 17.0 | 0.00 | 0.00 | 0.00 | 33 | 1017.4 |
| 20260831205823 | 82 | 138 | 11.0 | 14.0 | 0.00 | 0.00 | 0.00 | 33 | 1017.3 |
| 20260831205320 | 82 | 174 | 12.0 | 16.0 | 0.00 | 0.00 | 0.00 | 35 | 1017.4 |
| 20260831204819 | 82 | 168 | 8.0 | 12.0 | 0.00 | 0.00 | 0.00 | 33 | 1017.7 |
| 20260831204318 | 82 | 139 | 12.0 | 16.0 | 0.00 | 0.00 | 0.00 | 34 | 1017.8 |
| 20260831203818 | 82 | 180 | 6.0 | 10.0 | 0.00 | 0.00 | 0.00 | 33 | 1017.7 |
| 20260831203313 | 82 | 188 | 8.0 | 11.0 | 0.00 | 0.00 | 0.00 | 33 | 1018.1 |
| 20260831202811 | 82 | 141 | 14.0 | 14.0 | 0.00 | 0.02 | 0.02 | 33 | 1018.1 |
| 20260831202306 | 82 | 161 | 3.0 | 10.0 | 0.00 | 0.02 | 0.02 | 33 | 1017.8 |
| 20260831201801 | 82 | 131 | 16.0 | 18.0 | 0.00 | 0.02 | 0.02 | 33 | 1018.2 |
| 20260831201259 | 83 | 159 | 8.0 | 11.0 | 0.00 | 0.02 | 0.02 | 33 | 1018.2 |
| 20260831200755 | 82 | 161 | 6.0 | 15.0 | 0.00 | 0.02 | 0.02 | 34 | 1018.3 |
| 20260831200250 | 82 | 159 | 9.0 | 14.0 | 0.00 | 0.02 | 0.02 | 33 | 1018.2 |
| 20260831195745 | 82 | 115 | 2.0 | 11.0 | 0.00 | 0.02 | 0.02 | 34 | 1018.5 |
| 20260831195241 | 82 | 170 | 15.0 | 19.0 | 0.00 | 0.02 | 0.02 | 33 | 1018.5 |
| 20260831194736 | 82 | 164 | 10.0 | 18.0 | 0.00 | 0.02 | 0.02 | 32 | 1018.6 |
| 20260831194232 | 83 | 111 | 12.0 | 15.0 | 0.00 | 0.02 | 0.02 | 31 | 1018.9 |
| 20260831193730 | 83 | 121 | 7.0 | 17.0 | 0.00 | 0.02 | 0.02 | 32 | 1018.8 |
| 20260831193226 | 83 | 145 | 18.0 | 19.0 | 0.05 | 0.02 | 0.02 | 32 | 1018.5 |
| 20260831192721 | 83 | 111 | 10.0 | 17.0 | 0.05 | 0.02 | 0.02 | 31 | 1018.9 |
| 20260831192216 | 84 | 132 | 8.0 | 13.0 | 0.05 | 0.01 | 0.01 | 31 | 1018.8 |
| 20260831191712 | 84 | 123 | 11.0 | 13.0 | 0.02 | 0.00 | 0.00 | 31 | 1019.0 |
| 20260831191208 | 84 | 181 | 6.0 | 18.0 | 0.00 | 0.00 | 0.00 | 31 | 1019.0 |
| 20260831190703 | 83 | 157 | 16.0 | 17.0 | 0.00 | 0.00 | 0.00 | 33 | 1018.9 |
| 20260831190202 | 84 | 175 | 8.0 | 15.0 | 0.00 | 0.00 | 0.00 | 32 | 1019.2 |
| 20260831185658 | 84 | 193 | 5.0 | 13.0 | 0.00 | 0.00 | 0.00 | 31 | 1019.1 |
| 20260831185154 | 85 | 176 | 9.0 | 18.0 | 0.00 | 0.00 | 0.00 | 32 | 1019.1 |
| 20260831184653 | 85 | 158 | 14.0 | 17.0 | 0.00 | 0.00 | 0.00 | 33 | 1019.0 |
| 20260831184149 | 84 | 184 | 16.0 | 19.0 | 0.00 | 0.00 | 0.00 | 33 | 1019.2 |
| 20260831183648 | 84 | 161 | 6.0 | 18.0 | 0.00 | 0.00 | 0.00 | 33 | 1019.1 |
| 20260831183148 | 83 | 145 | 7.0 | 18.0 | 0.00 | 0.00 | 0.00 | 36 | 1019.5 |
| 20260831182646 | 83 | 173 | 8.0 | 18.0 | 0.00 | 0.00 | 0.00 | 35 | 1019.2 |
| 20260831182143 | 83 | 150 | 10.0 | 19.0 | 0.00 | 0.00 | 0.00 | 37 | 1019.6 |
| 20260831181637 | 83 | 159 | 8.0 | 16.0 | 0.00 | 0.00 | 0.00 | 36 | 1019.5 |
| 20260831181137 | 83 | 149 | 9.0 | 14.0 | 0.00 | 0.00 | 0.00 | 35 | 1019.6 |
| 20260831180627 | 84 | 155 | 12.0 | 19.0 | 0.00 | 0.00 | 0.00 | 35 | 1019.6 |
| 20260831180122 | 83 | 219 | 6.0 | 11.0 | 0.00 | 0.00 | 0.00 | 37 | 1019.6 |
| 20260831175622 | 82 | 164 | 3.0 | 13.0 | 0.00 | 0.00 | 0.00 | 37 | 1019.7 |
| 20260831175119 | 81 | 160 | 10.0 | 15.0 | 0.00 | 0.00 | 0.00 | 37 | 1019.7 |
| 20260831174619 | 81 | 161 | 10.0 | 20.0 | 0.00 | 0.00 | 0.00 | 38 | 1019.7 |
| 20260831174113 | 80 | 171 | 11.0 | 19.0 | 0.00 | 0.00 | 0.00 | 40 | 1019.8 |
| 20260831173612 | 79 | 134 | 20.0 | 21.0 | 0.00 | 0.00 | 0.00 | 41 | 1019.7 |
| 20260831173108 | 78 | 174 | 13.0 | 16.0 | 0.00 | 0.00 | 0.00 | 43 | 1019.7 |
| 20260831172608 | 78 | 169 | 10.0 | 16.0 | 0.00 | 0.00 | 0.00 | 43 | 1019.7 |
| 20260831172103 | 79 | 144 | 5.0 | 17.0 | 0.00 | 0.00 | 0.00 | 42 | 1019.9 |
| 20260831171558 | 77 | 182 | 12.0 | 19.0 | 0.00 | 0.00 | 0.00 | 44 | 1019.8 |
| 20260831171055 | 75 | 174 | 12.0 | 17.0 | 0.00 | 0.00 | 0.00 | 47 | 1019.7 |
| 20260831170551 | 74 | 163 | 14.0 | 17.0 | 0.00 | 0.00 | 0.00 | 48 | 1019.7 |
| 20260831170049 | 73 | 149 | 10.0 | 21.0 | 0.00 | 0.00 | 0.00 | 49 | 1019.9 |
| 20260831165548 | 72 | 178 | 14.0 | 21.0 | 0.00 | 0.00 | 0.00 | 50 | 1019.9 |
| 20260831165045 | 72 | 148 | 15.0 | 16.0 | 0.00 | 0.00 | 0.00 | 52 | 1019.8 |